Somerville, NJ

4:10 AM EDT on April 29, 2017 (GMT -0400)
Somerset

Weather History for KSMQ - October, 2013

Change the Weather History Date:

Tuesday, October 8, 2013

  Actual Average Record
Temperature  
Mean Temperature 56 °F -  
Max Temperature 68 °F 66 °F 90 °F (2007)
Min Temperature 44 °F 41 °F 27 °F (1953)
Degree Days  
Heating Degree Days 9    
Growing Degree Days 6 (Base 50)    
Moisture  
Dew Point 46 °F    
Average Humidity 86    
Maximum Humidity 100    
Minimum Humidity 37    
Precipitation  
Precipitation 0.02 in - - ()
Sea Level Pressure  
Sea Level Pressure 30.16 in    
Wind  
Wind Speed 1 mph (North)    
Max Wind Speed 9 mph    
Max Gust Speed -    
Visibility 5 miles    
Events      
Averages and records for this station are not official NWS values.
T = Trace of Precipitation, MM = Missing Value Source: NWS Daily Summary

Daily Weather History Graph

Daily Weather History Graph

Search for Another Location

Airport or City:

Trip Planner

Search our weather history database for the weather conditions in past years. The results will help you decide how hot, cold, wet, or windy it might be!

Date:

Astronomy

Oct. 08, 2013 Rise Set
Actual Time 7:02 AM EDT 6:29 PM EDT
Civil Twilight 6:35 AM EDT 6:56 PM EDT
Nautical Twilight 6:03 AM EDT 7:27 PM EDT
Astronomical Twilight 5:31 AM EDT 7:59 PM EDT
Moon 10:55 AM EDT (10/8) 9:02 PM EDT (10/8)
Length of Visible Light 12h 21m
Length of Day
11h 26m
Waxing Crescent, 16% of the Moon is Illuminated
Oct 8
Waxing Crescent
Oct 11
First Quarter
Oct 18
Full
Oct 26
Last Quarter
Nov 3
New

Hourly Weather History & Observations

Time (EDT) Temp. Windchill Dew Point Humidity Pressure Visibility Wind Dir Wind Speed Gust Speed Precip Events Conditions
12:53 AM 51.1 °F - 48.9 °F 92% 30.02 in 8.0 mi Calm Calm - N/A   Clear
1:53 AM 50.0 °F - 48.9 °F 96% 30.05 in 9.0 mi Calm Calm - 0.01 in   Clear
2:27 AM 48.2 °F - 46.4 °F 93% 30.06 in 2.0 mi Calm Calm - N/A   Partly Cloudy
2:30 AM 48.2 °F - 46.4 °F 93% 30.06 in 1.0 mi Calm Calm - N/A   Mist
2:38 AM 48.2 °F - 46.4 °F 93% 30.06 in 0.8 mi Calm Calm - N/A   Mist
2:41 AM 48.2 °F - 46.4 °F 93% 30.06 in 1.2 mi Calm Calm - N/A   Partly Cloudy
2:53 AM 48.0 °F - 46.9 °F 96% 30.06 in 1.2 mi Calm Calm - N/A   Partly Cloudy
3:06 AM 48.2 °F - 46.4 °F 93% 30.06 in 0.8 mi Calm Calm - N/A   Mist
3:10 AM 48.2 °F - 46.4 °F 93% 30.07 in 1.2 mi Calm Calm - N/A   Scattered Clouds
3:15 AM 48.2 °F - 46.4 °F 93% 30.07 in 3.0 mi Calm Calm - N/A   Partly Cloudy
3:25 AM 48.2 °F - 46.4 °F 93% 30.07 in 2.5 mi Calm Calm - N/A   Partly Cloudy
3:32 AM 48.2 °F - 46.4 °F 93% 30.08 in 5.0 mi Calm Calm - N/A   Partly Cloudy
3:38 AM 48.2 °F - 46.4 °F 93% 30.08 in 1.8 mi Calm Calm - N/A   Partly Cloudy
3:51 AM 46.4 °F - 46.4 °F 100% 30.09 in 3.0 mi Calm Calm - N/A   Partly Cloudy
3:53 AM 46.9 °F - 46.0 °F 97% 30.09 in 6.0 mi Calm Calm - N/A   Partly Cloudy
4:13 AM 46.4 °F - 44.6 °F 93% 30.10 in 2.5 mi Calm Calm - N/A   Partly Cloudy
4:26 AM 46.4 °F - 44.6 °F 93% 30.10 in 1.2 mi Calm Calm - N/A   Partly Cloudy
4:38 AM 46.4 °F - 44.6 °F 93% 30.11 in 1.0 mi Calm Calm - N/A   Mist
4:53 AM 46.0 °F - 45.0 °F 96% 30.12 in 1.0 mi Calm Calm - N/A   Mist
5:03 AM 46.4 °F - 44.6 °F 93% 30.12 in 3.0 mi Calm Calm - N/A   Scattered Clouds
5:16 AM 46.4 °F - 44.6 °F 93% 30.13 in 2.5 mi Calm Calm - N/A   Partly Cloudy
5:24 AM 46.4 °F - 44.6 °F 93% 30.13 in 4.0 mi Calm Calm - N/A   Clear
5:31 AM 46.4 °F - 44.6 °F 93% 30.13 in 1.8 mi Calm Calm - N/A   Partly Cloudy
5:41 AM 44.6 °F - 44.6 °F 100% 30.13 in 1.0 mi Calm Calm - N/A   Mist
5:47 AM 44.6 °F - 44.6 °F 100% 30.14 in 2.0 mi Calm Calm - N/A   Scattered Clouds
5:48 AM 45.0 °F - 44.1 °F 97% 30.14 in 2.0 mi Calm Calm - N/A   Scattered Clouds
5:59 AM 44.6 °F 43.1 °F 44.6 °F 100% 30.13 in 3.0 mi NNW 3.5 mph - N/A   Partly Cloudy
6:38 AM 44.6 °F - 44.6 °F 100% 30.16 in 2.0 mi Calm Calm - N/A   Partly Cloudy
6:53 AM 45.0 °F - 44.1 °F 97% 30.17 in 1.5 mi Calm Calm - N/A   Partly Cloudy
7:05 AM 44.6 °F - 42.8 °F 93% 30.17 in 0.8 mi Calm Calm - N/A   Mist
7:25 AM 44.6 °F - 42.8 °F 93% 30.18 in 1.2 mi Calm Calm - N/A   Scattered Clouds
7:28 AM 44.6 °F - 42.8 °F 93% 30.18 in 4.0 mi Calm Calm - N/A   Scattered Clouds
7:42 AM 44.6 °F - 42.8 °F 93% 30.19 in 1.8 mi Calm Calm - N/A   Scattered Clouds
7:53 AM 44.1 °F - 43.0 °F 96% 30.20 in 2.5 mi Calm Calm - N/A   Partly Cloudy
8:00 AM 44.6 °F - 44.6 °F 100% 30.20 in 8.0 mi Calm Calm - N/A   Partly Cloudy
8:53 AM 53.1 °F - 48.9 °F 86% 30.24 in 10.0 mi Calm Calm - N/A   Clear
9:53 AM 57.9 °F - 48.0 °F 70% 30.25 in 10.0 mi Calm Calm - N/A   Unknown
10:53 AM 62.1 °F - 45.0 °F 53% 30.25 in 10.0 mi NE 6.9 mph - N/A   Clear
11:53 AM 64.0 °F - 43.0 °F 46% 30.25 in 10.0 mi North 9.2 mph - N/A   Clear
12:53 PM 64.9 °F - 43.0 °F 45% 30.23 in 10.0 mi Variable 4.6 mph - N/A   Clear
1:53 PM 66.9 °F - 41.0 °F 39% 30.21 in 10.0 mi Variable 5.8 mph - N/A   Clear
2:53 PM 68.0 °F - 41.0 °F 37% 30.22 in 10.0 mi NNE 9.2 mph - N/A   Clear
3:53 PM 66.9 °F - 43.0 °F 42% 30.23 in 10.0 mi NNE 5.8 mph - N/A   Clear
4:53 PM 66.0 °F - 44.1 °F 45% 30.22 in 10.0 mi North 5.8 mph - N/A   Clear
5:53 PM 61.0 °F - 48.9 °F 64% 30.24 in 10.0 mi Calm Calm - N/A   Clear
6:53 PM 55.9 °F - 51.1 °F 84% 30.26 in 10.0 mi Calm Calm - N/A   Clear
7:53 PM 53.1 °F - 51.1 °F 93% 30.27 in 10.0 mi Calm Calm - N/A   Clear
8:53 PM 52.0 °F - 50.0 °F 93% 30.29 in 10.0 mi Calm Calm - N/A   Clear
9:53 PM 50.0 °F - 48.9 °F 96% 30.31 in 10.0 mi Calm Calm - N/A   Clear
10:53 PM 48.9 °F - 46.9 °F 93% 30.32 in 10.0 mi Calm Calm - N/A   Clear
11:53 PM 48.9 °F - 46.9 °F 93% 30.32 in 10.0 mi WNW 3.5 mph - 0.01 in   Clear